TimeMDT,TemperatureF,Dew PointF,Humidity,Sea Level PressureIn,VisibilityMPH,Wind Direction,Wind SpeedMPH,Gust SpeedMPH,PrecipitationIn,Events,Conditions,WindDirDegrees,DateUTC
12:29 AM,30.2,28.4,93,30.29,3.0,ESE,5.8,-,0.00,Snow,Light Snow,120,2012-10-06 06:29:00
12:41 AM,30.2,28.4,93,30.29,2.5,East,4.6,-,0.00,Snow,Light Snow,100,2012-10-06 06:41:00
12:53 AM,30.0,28.9,96,30.36,2.5,East,5.8,-,0.00,Snow,Light Snow,80,2012-10-06 06:53:00
1:00 AM,30.2,28.4,93,30.29,3.0,East,6.9,-,0.00,Snow,Light Snow,80,2012-10-06 07:00:00
1:42 AM,30.2,28.4,93,30.30,4.0,ENE,10.4,-,0.00,Snow,Light Snow,60,2012-10-06 07:42:00
1:53 AM,30.0,28.0,92,30.37,3.0,NE,10.4,-,0.00,Snow,Light Snow,50,2012-10-06 07:53:00
2:02 AM,30.2,28.4,93,30.30,2.5,NE,9.2,-,0.00,Snow,Light Snow,50,2012-10-06 08:02:00
2:36 AM,30.2,28.4,93,30.30,4.0,ENE,6.9,-,0.00,Snow,Light Snow,60,2012-10-06 08:36:00
2:53 AM,28.9,28.0,96,30.37,8.0,NE,6.9,-,0.00,Snow,Light Snow,40,2012-10-06 08:53:00
3:53 AM,28.9,27.0,92,30.37,5.0,North,11.5,-,0.00,Snow,Light Snow,10,2012-10-06 09:53:00
4:03 AM,28.4,26.6,93,30.29,4.0,North,11.5,-,0.00,Snow,Light Snow,10,2012-10-06 10:03:00
4:34 AM,28.4,26.6,93,30.30,7.0,North,11.5,-,0.00,Snow,Light Snow,10,2012-10-06 10:34:00
4:53 AM,28.0,26.1,92,30.37,10.0,North,10.4,-,0.00,,Overcast,10,2012-10-06 10:53:00
5:43 AM,28.4,26.6,93,30.32,9.0,NNW,9.2,-,0.00,Snow,Light Snow,340,2012-10-06 11:43:00
5:53 AM,28.9,26.1,89,30.39,9.0,NNW,9.2,-,0.00,Snow,Light Snow,340,2012-10-06 11:53:00
6:36 AM,28.4,26.6,93,30.33,10.0,NNW,10.4,-,0.00,Snow,Light Snow,340,2012-10-06 12:36:00
6:44 AM,28.4,26.6,93,30.33,9.0,North,9.2,-,0.00,Snow,Light Snow,350,2012-10-06 12:44:00
6:53 AM,28.0,26.1,92,30.43,8.0,North,8.1,-,0.00,Snow,Light Snow,350,2012-10-06 12:53:00
7:53 AM,27.0,24.1,89,30.46,10.0,North,11.5,20.7,0.00,,Overcast,360,2012-10-06 13:53:00
8:53 AM,26.1,23.0,88,30.48,10.0,North,9.2,-,0.00,,Overcast,350,2012-10-06 14:53:00
9:27 AM,26.6,23.0,86,30.38,10.0,NNW,6.9,-,N/A,,Mostly Cloudy,340,2012-10-06 15:27:00
9:53 AM,28.9,23.0,78,30.48,10.0,NNW,4.6,-,0.01,,Overcast,330,2012-10-06 15:53:00
10:26 AM,28.4,23.0,80,30.38,10.0,NNW,6.9,-,0.07,,Scattered Clouds,340,2012-10-06 16:26:00
10:53 AM,32.0,23.0,69,30.46,10.0,North,4.6,-,0.10,,Scattered Clouds,360,2012-10-06 16:53:00
11:00 AM,30.2,24.8,80,30.38,10.0,NNW,4.6,-,N/A,,Mostly Cloudy,330,2012-10-06 17:00:00
11:53 AM,30.9,23.0,72,30.46,10.0,NNW,3.5,-,N/A,,Overcast,330,2012-10-06 17:53:00
12:53 PM,32.0,25.0,75,30.45,10.0,NW,5.8,-,N/A,,Overcast,310,2012-10-06 18:53:00
1:53 PM,33.1,21.9,64,30.40,10.0,NNW,5.8,-,N/A,,Mostly Cloudy,330,2012-10-06 19:53:00
2:04 PM,33.8,21.2,60,30.32,10.0,West,6.9,-,N/A,,Scattered Clouds,280,2012-10-06 20:04:00
2:53 PM,37.0,21.9,54,30.37,10.0,Calm,Calm,-,N/A,,Scattered Clouds,0,2012-10-06 20:53:00
3:53 PM,39.0,19.9,46,30.34,10.0,WNW,10.4,-,N/A,,Clear,290,2012-10-06 21:53:00
4:53 PM,39.0,21.0,49,30.32,10.0,NNW,4.6,-,N/A,,Clear,340,2012-10-06 22:53:00
5:53 PM,37.9,16.0,41,30.31,10.0,West,10.4,-,N/A,,Clear,270,2012-10-06 23:53:00
6:53 PM,32.0,23.0,69,30.34,10.0,SSW,6.9,-,N/A,,Clear,200,2012-10-07 00:53:00
7:53 PM,28.9,23.0,78,30.35,10.0,Calm,Calm,-,N/A,,Clear,0,2012-10-07 01:53:00
8:53 PM,28.0,23.0,81,30.35,10.0,SSE,5.8,-,N/A,,Clear,160,2012-10-07 02:53:00
9:53 PM,25.0,21.0,85,30.34,10.0,SE,3.5,-,N/A,,Clear,140,2012-10-07 03:53:00
11:53 PM,21.0,18.0,88,30.32,10.0,East,3.5,-,N/A,,Clear,100,2012-10-07 05:53:00